STARLINK-35612 (66128 NORAD) Tracking and Keplerian Element Data

This shows tracking and keplerian element data for the satellite.

Feedback or suggestion? Click here.




ElementValue
Catalog66128
NameSTARLINK-35612
Epoch Orbit1038
Epoch Day354.16492608
Epoch Year2025
RAAN52.6507
Inclination53.1613
Eccentricity0.0001422
Argument of Perigee104.1204
Mean Anonmoly255.9959
Mean Motion15.39622742
Decay Rate0.00043152
L11 66128U 25237Q 25354.16492608 .00043152 00000+0 10826-2 0 9990
L22 66128 53.1613 52.6507 0001422 104.1204 255.9959 15.39622742 10387



Live tracking and technical data element details for STARLINK-35612 (NORAD 66128). STARLINK-35612 can be tracked NOW for your location showing map with azimuth and elevation plus other details from your city location.







IsCatalogInMostPopularTable: catalog: 66128, numindb: 4
Update: records affected: 1



GetName: 66128 STARLINK-35612

Hit Count: updated at: Tue, 10 Feb 2026 02:26:09 GMT